Location: Unspecified
(0.0000°N, 0.0000°E)
Time: 03:22:50
(UTC+00:00)

Altair - Pass Details

Date: 29 October 2021
Orbit: 1502 x 1682 km, 47.2° (Epoch: 27 November)

Event Time Altitude Azimuth Distance (km) Brightness Sun altitude
Rises 21:53:29 0° 219° (SW) 4,693 10.5 -59.4°
Reaches altitude 10° 21:56:33 10° 218° (SW) 3,691 9.8 -60.1°
Enters shadow 21:57:15 13° 218° (SW) 3,468 9.6 -60.3°
